AirNav   Everest Fuels
 
 998 users online  

11MI Wagner's Landing Heliport
Clarkston, Michigan, USA

GOING TO CLARKSTON?


FAA INFORMATION EFFECTIVE 18 JUNE 2020

Location

FAA Identifier: 11MI
Lat/Long: 42-44-18.1050N 083-26-14.7910W
42-44.301750N 083-26.246517W
42.7383625,-83.4374419
(estimated)
Elevation: 975 ft. / 297 m (estimated)
Variation: 05W (1985)
From city: 1 mile W of CLARKSTON, MI
Time zone: UTC -4 (UTC -5 during Standard Time)
Zip code: 48346

Heliport Operations

Heliport use: Private use. Permission required prior to landing
Activation date: 02/1987
Control tower: no
ARTCC: CLEVELAND CENTER
FSS: LANSING FLIGHT SERVICE STATION
Attendance: UNATNDD
Wind indicator: yes
Segmented circle: no

Heliport Communications

WX ASOS at PTK (4 nm S): 125.025 (248-886-8551)
WX AWOS-3 at VLL (16 nm SE): 119.475 (248-288-4649)
WX ASOS at FNT (19 nm NW): 133.15 (810-342-7804)

Nearby radio navigation aids

VOR radial/distance  VOR name  Freq  Var
FNTr141/19.3FLINT VORTAC116.9006W
SVMr022/21.0SALEM VORTAC114.3003W
DXOr000/31.7DETROIT VOR/DME113.4006W

Heliport Services

Runway Information

Helipad H1

Dimensions: 50 x 50 ft. / 15 x 15 m
Surface: turf
Traffic pattern: leftleft
Markings: basic

Heliport Ownership and Management from official FAA records

Ownership: Privately-owned
Owner: RONALD G. WAGNER
7500 DEER PARK TRAIL
48346
Phone 313-625-9393
Manager: RONALD G. WAGNER
7500 DEER PARK TRAIL
48346
Phone 313-625-9393

Heliport Operational Statistics

Aircraft based on the field: 1
Helicopters: 1
    

Additional Remarks

A52-H1 40' TREES 200' N & 150' S; 20' BLDG 250' E.
FOR CD CTC DETROIT APCH AT 800-499-8181.

Instrument Procedures

There are no published instrument procedures at 11MI.

Some nearby airports with instrument procedures:

KPTK - Oakland County International Airport (4 nm S)
9G2 - Price's Airport (15 nm W)
Y47 - Oakland Southwest Airport (16 nm SW)
KVLL - Oakland/Troy Airport (16 nm SE)
KFNT - Bishop International Airport (19 nm NW)
 
Loc | Ops | Rwys | IFR | FBO | Links
Com | Nav | Svcs | Stats | Notes
Area around 11MI (Wagner's Landing Heliport)
 
Road maps at: MapQuest Bing Google
 
Aerial photo
No photo
 
Sectional chart

 
Airport distance calculator
Flying to Wagner's Landing Heliport? Find the distance to fly.

From to 11MI

Sunrise and sunset
Times for 06-Jul-2020
 Local
(UTC-4)
 Zulu
(UTC)
Morning civil twilight05:2909:29
Sunrise06:0410:04
Sunset21:1301:13
Evening civil twilight21:4801:48

Current date and time
Zulu (UTC)  07-Jul-2020 01:17:59
Local (UTC-4)  06-Jul-2020 21:17:59
 
METAR
KPTK 
4nm S 
070053Z 00000KT 10SM FEW070 FEW250 30/18 A2997 RMK AO2 SLP140 T03000183 $
KVLL 
16nm SE 
070056Z AUTO 20003KT 10SM CLR 31/17 A2999 RMK AO2 T03080173
KFNT 
19nm NW 
070053Z 19004KT 10SM CLR 31/16 A2997 RMK AO2 SLP140 T03060161
TAF
KPTK 
4nm S 
061742Z 0618/0718 17008KT P6SM SCT060 TEMPO 0619/0622 6SM SHRA BKN050 FM070200 VRB02KT P6SM SCT090 FM070900 24004KT P6SM FEW070
KFNT 
19nm NW 
061742Z 0618/0718 18008KT P6SM SCT060 TEMPO 0619/0622 6SM SHRA BKN050 FM070200 VRB02KT P6SM SCT090 FM070900 24004KT P6SM FEW070
NOTAMs
Click for the latest NOTAMs
NOTAMs are issued by the DoD/FAA and will open in a separate window not controlled by AirNav.

 

 
 

Would you like to see your business listed on this page?

 If your business provides an interesting product or service to pilots, flight crews, aircraft, or users of the Wagner's Landing Heliport, you should consider listing it here.  To start the listing process, click on the button below
 
Add a business
 

Other Pages about Wagner's Landing Heliport

Update a link
 
Copyright © AirNav, LLC. All rights reserved. Privacy Policy  Contact